sat.trackr.live / text

‹ back to catalog

STARLINK-3653

NORAD 52000 · 2022-025AW

PAYLOAD ACTIVE UNKNOWN

§ Identity

Operator
Country
US
Launch date
2022-03-09
Launch site
AFETR
Launch vehicle
Mass (kg)
RCS (m²)

Purposes: comms

External: N2YO · Heavens-Above · Gunter

§ Orbital elements

Epoch: 2026-09-19T12:54:45.795456Z

Period
93.79 min
Inclination
53.1597°
Eccentricity
0.0001126
Mean motion
15.35401201 rev/d
Perigee alt
459.0 km
Apogee alt
460.5 km
Semi-major
6,837.9 km
B*
3.2084e-6
RAAN
218.0172°
Arg perigee
100.7543°
Mean anomaly
259.3587°
Rev number
25,033

§ Raw data

STARLINK-36531 52000U 22025AW  26262.53803004 -.00000268  00000+0  32084-5 0  99972 52000  53.1597 218.0172 0001126 100.7543 259.3587 15.35401201250334

JSON: /api/v1/satellites/52000 · /tle

For live sub-satellite position, see the globe view (requires WebGL).

§ Visibility from observer

Set your observer location to see the next 7 days of passes ≥ 10°. The values pass through the URL so the page stays shareable.

No JS? Fill the form by hand. The geolocation button needs JavaScript.